Location: Tel Aviv
(32.0670°N, 34.7670°E)
Time: 02:18:56
(UTC+03:00)

ISS - Visible Passes

Search period start: 23 May 2017 00:00
Search period end: 02 June 2017 00:00
Orbit: 402 x 409 km, 51.6° (Epoch: 23 May)

Date Brightness Start Highest point End Pass type
(mag) Time Alt. Az. Time Alt. Az. Time Alt. Az.
23 May -0.2 03:58:59 10° NNE 03:59:54 11° NNE 04:00:49 10° NE visible
23 May -3.0 20:33:56 10° SSW 20:36:51 30° SE 20:39:47 10° ENE visible
23 May -1.1 22:10:52 10° W 22:13:22 20° NW 22:15:53 10° NNE visible
24 May -2.5 04:41:35 10° NNW 04:44:44 44° NE 04:47:52 10° ESE visible
24 May -2.2 21:18:08 10° WSW 21:21:13 37° NW 21:24:18 10° NNE visible
25 May -1.2 03:49:56 10° NNW 03:52:36 23° NE 03:55:15 10° E visible
25 May -3.8 20:25:51 10° SW 20:29:09 83° NW 20:32:26 10° NE visible
26 May -0.4 02:58:42 10° N 03:00:21 13° NNE 03:02:01 10° ENE visible
26 May -3.8 04:33:53 10° NW 04:37:05 56° SW 04:40:17 10° SSE visible
26 May -0.6 21:11:36 10° WNW 21:13:45 16° NW 21:15:55 10° N visible
27 May -3.4 03:41:50 10° NW 03:45:04 60° NE 03:48:17 10° SE visible
27 May -1.5 20:18:37 10° W 20:21:32 28° NW 20:24:27 10° NNE visible
29 May -0.5 20:12:21 10° WNW 20:14:03 13° NNW 20:15:45 10° N visible
